DH2PG-6 Weather Reports


time (UTC)temp
C
wind
direction
speed
KPH
gust
KPH
rain 1hr
cm
rain 24hr
cm
rain mn
cm
humidity
%
barometer
mb
20260504191928 11 157 0.0 0.0 0.00 0.20 0.00 88 1009.1
20260504191428 11 157 0.0 0.0 0.00 0.20 0.00 88 1009.3
20260504190427 11 157 0.0 0.0 0.00 0.20 0.00 88 1009.2
20260504185927 11 135 0.0 0.0 0.00 0.20 0.00 87 1009.2
20260504185427 11 135 0.0 0.0 0.00 0.20 0.00 87 1009.3
20260504184926 11 135 0.0 0.0 0.00 0.20 0.00 87 1009.3
20260504184426 11 135 0.0 0.0 0.00 0.20 0.00 87 1009.2
20260504183926 11 135 0.0 0.0 0.00 0.20 0.00 87 1009.2
20260504183426 11 135 0.0 0.0 0.00 0.20 0.00 87 1009.3
20260504182925 11 157 0.0 0.0 0.00 0.20 0.00 87 1009.2
20260504182425 11 135 0.0 0.0 0.00 0.20 0.00 87 1009.3
20260504181925 11 157 0.0 0.0 0.00 0.20 0.00 87 1009.3
20260504181425 12 157 0.0 0.0 0.00 0.20 0.00 86 1009.5
20260504180924 12 135 0.0 0.0 0.00 0.20 0.00 86 1009.3
20260504175924 12 135 0.0 0.0 0.05 0.20 0.00 86 1009.4
20260504175423 12 135 0.0 0.0 0.05 0.20 0.00 86 1009.3
20260504174924 12 157 0.0 0.0 0.05 0.20 0.00 85 1009.4
20260504174423 12 135 0.0 0.0 0.10 0.20 0.00 85 1009.4
20260504173923 12 135 0.0 0.0 0.10 0.20 0.00 84 1009.6
20260504173422 12 157 0.0 0.0 0.10 0.20 0.00 84 1009.6
20260504172922 12 157 0.0 0.0 0.10 0.20 0.00 84 1009.6
20260504172422 12 157 0.0 0.0 0.10 0.20 0.00 83 1009.6
20260504171921 12 135 0.0 0.0 0.10 0.20 0.00 82 1009.6
20260504171421 13 157 0.0 0.0 0.10 0.20 0.00 82 1009.5
20260504170921 13 180 0.0 0.0 0.05 0.15 0.00 82 1009.4
20260504170421 13 157 0.0 0.0 0.05 0.15 0.00 82 1009.9
20260504160417 14 22 0.0 0.0 0.00 0.10 0.00 81 1009.9
20260504150914 12 315 0.0 0.0 0.00 0.10 0.00 81 1010.2
20260504150414 12 315 0.0 0.0 0.00 0.10 0.00 81 1010.0
20260504140911 14 247 0.0 0.0 0.00 0.10 0.00 77 1010.3
20260504140410 14 247 0.0 0.0 0.00 0.10 0.00 77 1010.4
20260504110400 15 157 0.0 0.0 0.00 0.00 0.00 73 1011.1
20260504100357 17 157 0.0 0.0 0.00 0.00 0.00 69 1010.8
20260504081851 17 180 0.0 0.0 0.00 0.00 0.00 69 1010.8
20260504081351 17 202 0.0 0.0 0.00 0.00 0.00 69 1010.7
20260504080850 17 270 0.0 0.0 0.00 0.00 0.00 70 1010.6
20260504080350 17 157 0.0 0.0 0.00 0.00 0.00 70 1010.6
20260504070347 13 157 0.0 0.0 0.00 0.00 0.00 80 1010.3
20260504050340 9 157 0.0 0.0 0.00 0.00 0.00 86 1009.9
20260504045840 9 157 0.0 0.0 0.00 0.00 0.00 86 1009.9
20260504045340 9 157 0.0 0.0 0.00 0.00 0.00 86 1009.8
20260504044839 8 157 0.0 0.0 0.00 0.00 0.00 86 1009.8
20260504044339 8 157 0.0 0.0 0.00 0.00 0.00 86 1009.8
20260504040837 8 157 0.0 0.0 0.00 0.00 0.00 85 1009.6
20260504040337 8 157 0.0 0.0 0.00 0.00 0.00 85 1009.6
20260504035836 8 157 0.0 0.0 0.00 0.00 0.00 85 1009.6
20260504035337 8 157 0.0 0.0 0.00 0.00 0.00 84 1009.6
20260504034836 8 157 0.0 0.0 0.00 0.00 0.00 84 1009.6
20260504034336 8 157 0.0 0.0 0.00 0.00 0.00 84 1009.7
20260504033335 8 157 0.0 0.0 0.00 0.00 0.00 84 1009.7
20260504032835 8 180 0.0 0.0 0.00 0.00 0.00 84 1009.7
20260504031834 8 180 0.0 0.0 0.00 0.00 0.00 84 1009.7
20260504031334 8 180 0.0 0.0 0.00 0.00 0.00 84 1009.7
20260504030834 8 180 0.0 0.0 0.00 0.00 0.00 84 1009.6
20260504030333 8 180 0.0 0.0 0.00 0.00 0.00 84 1009.7
20260504025833 8 202 0.0 0.0 0.00 0.00 0.00 84 1009.6
20260504025333 8 202 0.0 0.0 0.00 0.00 0.00 84 1009.7
20260504024832 8 202 0.0 0.0 0.00 0.00 0.00 85 1009.7
20260504024332 8 180 0.0 0.0 0.00 0.00 0.00 85 1009.8
20260504023832 8 157 0.0 0.0 0.00 0.00 0.00 85 1009.9
20260504023332 8 225 0.0 0.0 0.00 0.00 0.00 85 1009.8
20260504022831 8 180 0.0 0.0 0.00 0.00 0.00 85 1009.9
20260504022331 8 180 0.0 0.0 0.00 0.00 0.00 85 1010.0
20260504021831 8 180 0.0 0.0 0.00 0.00 0.00 85 1010.0
20260504021331 9 180 0.0 0.0 0.00 0.00 0.00 85 1010.1
20260504020830 9 180 0.0 0.0 0.00 0.00 0.00 85 1010.2
20260504020330 9 180 0.0 0.0 0.00 0.00 0.00 85 1010.1
20260504015830 9 180 0.0 0.0 0.00 0.00 0.00 84 1010.1
20260504015329 9 180 0.0 0.0 0.00 0.00 0.00 84 1010.1
20260504014829 9 180 0.0 0.0 0.00 0.00 0.00 85 1010.1
20260504014329 9 180 0.0 0.0 0.00 0.00 0.00 85 1010.1
20260504013328 9 180 0.0 0.0 0.00 0.00 0.00 85 1010.1
20260504012828 9 180 0.0 0.0 0.00 0.00 0.00 85 1010.1
20260504012328 9 202 0.0 0.0 0.00 0.00 0.00 85 1010.0
20260504011827 9 180 0.0 0.0 0.00 0.00 0.00 85 1010.0
20260504011327 9 202 0.0 0.0 0.00 0.00 0.00 85 1010.1
20260504010827 9 180 0.0 0.0 0.00 0.00 0.00 85 1010.2
20260504010327 9 180 0.0 0.0 0.00 0.00 0.00 84 1010.1
20260504005826 9 180 0.0 0.0 0.00 0.00 0.00 84 1010.1
20260504005326 9 180 0.0 0.0 0.00 0.00 0.00 84 1010.0
20260504004826 9 180 0.0 0.0 0.00 0.00 0.00 84 1009.9
20260504003825 9 180 0.0 0.0 0.00 0.00 0.00 84 1009.8
20260504003325 10 202 0.0 0.0 0.00 0.00 0.00 84 1009.9
20260504002825 10 180 0.0 0.0 0.00 0.00 0.00 84 1010.0
20260504002324 10 180 0.0 0.0 0.00 0.00 0.00 84 1010.0
20260504001824 10 157 0.0 0.0 0.00 0.00 0.00 84 1010.1
20260504001324 10 180 0.0 0.0 0.00 0.00 0.00 84 1010.0
20260504000823 10 180 0.0 0.0 0.00 0.00 0.00 84 1010.0
20260504000323 10 202 0.0 0.0 0.00 0.00 0.00 84 1010.1
20260503235823 10 202 0.0 0.0 0.00 0.00 0.00 84 1010.1
20260503235323 10 180 0.0 0.0 0.00 0.00 0.00 84 1010.0
20260503234822 10 180 0.0 0.0 0.00 0.00 0.00 84 1010.0
20260503234322 10 180 0.0 0.0 0.00 0.00 0.00 84 1010.0
20260503233322 10 202 0.0 0.0 0.00 0.00 0.00 84 1010.0
20260503232821 10 180 0.0 0.0 0.00 0.00 0.00 84 1010.1
20260503232321 10 180 0.0 0.0 0.00 0.00 0.00 84 1010.1
20260503231821 10 202 0.0 0.0 0.00 0.00 0.00 84 1010.2
20260503231320 10 157 0.0 0.0 0.00 0.00 0.00 84 1010.1
20260503230320 10 180 0.0 0.0 0.00 0.00 0.00 83 1010.2
20260503225820 10 180 0.0 0.0 0.00 0.00 0.00 83 1010.2
20260503225319 10 180 0.0 0.0 0.00 0.00 0.00 83 1010.3
20260503224819 10 225 0.0 0.0 0.00 0.00 0.00 83 1010.2
20260503224319 10 180 0.0 0.0 0.00 0.00 0.00 83 1010.3
20260503223818 10 180 0.0 0.0 0.00 0.00 0.00 83 1010.2
20260503223318 10 180 0.0 0.0 0.00 0.00 0.00 83 1010.2
20260503222318 10 202 0.0 0.0 0.00 0.00 0.00 83 1010.1
20260503221817 10 180 0.0 0.0 0.00 0.00 0.00 83 1010.0
20260503221317 10 202 0.0 0.0 0.00 0.00 0.00 82 1010.0
20260503220817 10 180 0.0 0.0 0.00 0.00 0.00 82 1010.0
20260503220316 10 180 0.0 0.0 0.00 0.00 0.00 82 1010.1
20260503214816 10 180 0.0 0.0 0.00 0.00 0.00 82 1010.0
20260503214315 10 180 0.0 0.0 0.00 0.00 0.00 82 1009.9
20260503213815 10 180 0.0 0.0 0.00 0.00 0.00 83 1010.0
20260503213315 10 180 0.0 0.0 0.00 0.00 0.00 83 1010.0
20260503212814 10 225 0.0 0.0 0.00 0.00 0.00 83 1010.1
20260503212314 10 202 0.0 0.0 0.00 0.00 0.00 83 1010.1
20260503211814 10 180 0.0 0.0 0.00 0.00 0.00 83 1010.1
20260503211314 10 180 0.0 0.0 0.00 0.00 0.00 82 1010.1
20260503210813 10 180 0.0 0.0 0.00 0.00 0.00 82 1010.2
20260503210313 10 202 0.0 0.0 0.00 0.00 0.00 82 1010.1
20260503205813 10 202 0.0 0.0 0.00 0.00 0.00 82 1010.0
20260503205312 10 180 0.0 0.0 0.00 0.00 0.00 82 1010.2
20260503204812 10 180 0.0 0.0 0.00 0.00 0.00 82 1010.0
20260503204312 10 180 0.0 0.0 0.00 0.00 0.00 82 1010.0
20260503203311 11 180 0.0 0.0 0.00 0.00 0.00 81 1009.9
20260503202811 11 157 0.0 0.0 0.00 0.00 0.00 81 1009.9
20260503202311 11 180 0.0 0.0 0.00 0.00 0.00 81 1010.0
20260503201810 11 180 0.0 0.0 0.00 0.00 0.00 80 1010.0
20260503201310 11 157 0.0 0.0 0.00 0.00 0.00 80 1010.0
20260503200810 11 157 0.0 0.0 0.00 0.00 0.00 80 1010.1
20260503195809 11 157 0.0 0.0 0.00 0.00 0.00 79 1010.2
20260503194308 12 157 0.0 0.0 0.00 0.00 0.00 78 1010.2
20260503193808 12 157 0.0 0.0 0.00 0.00 0.00 77 1010.1
20260503193308 12 180 0.0 0.0 0.00 0.00 0.00 77 1010.0
20260503192808 12 157 0.0 0.0 0.00 0.00 0.00 77 1010.1
20260503192307 12 157 0.0 0.0 0.00 0.00 0.00 78 1010.2